Theta_e
292 288 286 289 287 285 286 283 282 284 289 289 288 288 291 293 292 292 293 294 294 295 298 297 298 298 303 312 317 321 326 329 330 330 329 328 327 329 329 327 325 323 321 318
289 285 290 291 287 287 285 283 284 286 288 288 286 288 290 291 292 294 294 293 293 293 295 295 296 296 296 303 311 316 322 326 329 330 331 331 329 329 330 330 327 324 322 320
286 287 291 290 286 286 283 283 283 283 285 285 283 284 285 288 289 291 291 292 292 292 293 294 294 294 295 295 300 310 316 322 327 330 330 328 328 326 328 328 328 324 324 323
287 289 288 287 285 286 283 287 286 285 283 280 283 278 283 286 287 289 291 289 291 292 290 291 294 297 297 296 295 300 310 317 323 328 328 327 325 325 327 328 329 328 324 324
285 287 287 286 287 288 285 287 286 285 282 281 281 280 283 283 286 288 290 291 290 291 292 294 295 296 298 298 297 296 300 310 317 324 327 326 325 327 328 329 328 328 326 325
287 289 289 288 287 288 288 285 284 282 280 277 279 280 280 282 285 285 288 289 290 292 292 293 295 296 296 298 299 302 300 302 310 318 324 324 324 324 319 321 325 326 326 325
284 286 288 289 287 288 285 283 278 276 275 276 278 278 281 285 286 286 288 289 292 293 293 293 294 295 295 296 297 299 303 305 309 313 318 320 322 321 319 318 322 323 321 316
281 279 287 290 288 286 284 284 278 271 272 275 279 277 282 285 287 288 288 291 292 293 293 293 294 294 295 295 296 297 298 300 306 310 313 316 317 317 316 315 318 322 321 320
281 281 287 287 288 289 285 281 284 277 267 273 277 280 286 286 289 289 290 292 292 293 293 293 293 293 294 295 295 296 297 298 298 302 306 308 310 311 312 311 311 312 313 313
285 280 285 286 288 287 285 287 281 278 270 268 275 277 280 283 288 289 289 291 291 292 293 292 292 293 293 293 294 296 297 297 297 298 299 300 301 303 305 306 307 306 306 306
285 284 282 285 284 283 283 283 282 282 279 273 270 276 282 284 288 289 290 291 291 291 291 291 292 293 293 293 293 294 294 294 295 296 297 298 298 299 300 301 301 302 302 302
286 284 279 282 284 286 284 284 284 279 276 277 277 279 287 286 290 290 291 291 290 290 291 292 292 292 292 291 292 292 292 292 292 294 295 296 296 296 297 297 298 298 299 299
289 282 275 279 282 284 283 284 284 283 282 277 276 280 287 287 289 289 290 290 291 291 291 291 291 290 290 290 290 290 290 290 290 291 292 292 292 292 293 294 295 295 296 296
293 285 282 279 280 283 282 283 284 284 279 281 280 282 285 286 288 289 290 290 290 289 289 289 289 289 289 289 289 288 288 288 288 289 289 289 289 289 290 291 291 291 292 292
290 278 282 284 285 284 282 284 284 283 286 282 285 283 284 288 288 290 291 290 289 289 288 289 289 289 288 288 288 288 287 287 287 287 287 287 287 288 288 288 288 288 289 289
290 282 284 281 285 285 283 285 284 284 284 283 283 284 289 289 290 289 291 290 288 288 288 289 288 288 288 287 287 286 286 286 286 286 285 285 285 285 286 286 286 287 287 287
287 284 279 273 281 281 275 282 284 284 284 285 282 287 289 288 288 289 289 289 288 288 288 288 288 288 287 287 287 286 285 285 285 285 284 284 284 283 284 284 285 285 285 286
285 283 277 271 279 270 281 281 285 286 286 287 287 287 289 289 289 289 289 288 287 287 287 287 288 288 288 287 287 285 285 284 284 283 282 282 282 282 283 282 283 282 283 283
288 284 277 275 273 276 279 280 282 282 283 288 288 288 288 287 286 285 287 287 287 287 287 287 287 287 287 286 285 284 284 284 283 282 282 281 281 279 279 278 280 281 280 281
286 284 277 272 268 268 277 280 286 286 275 281 288 288 285 285 282 284 286 286 285 286 286 286 286 286 285 285 284 283 283 282 281 281 281 280 279 276 276 278 278 279 277 279
282 283 280 272 270 272 280 281 285 274 277 276 284 285 283 283 284 285 285 285 285 285 284 284 284 284 283 283 282 282 281 281 280 279 279 279 278 276 277 276 276 275 275 275
280 275 275 279 277 273 281 281 280 281 281 281 282 283 283 283 283 283 283 284 284 283 283 284 282 282 282 281 279 279 279 279 278 277 276 276 275 276 277 270 273 272 271 272
273 279 278 278 277 281 280 281 283 284 282 282 282 282 282 282 282 283 283 283 283 283 283 280 278 279 280 278 277 278 279 278 276 277 274 273 274 276 276 273 275 274 273 272
273 275 272 275 276 279 281 282 283 284 283 283 283 282 282 281 282 282 282 282 281 279 279 276 276 277 277 275 276 273 276 276 274 273 272 272 272 275 273 275 275 273 274 274
276 278 274 273 278 280 281 282 283 283 282 281 281 281 281 281 280 281 278 277 278 277 275 275 275 275 274 274 273 272 271 268 268 269 271 273 274 274 276 277 276 276 277 278
276 276 276 273 280 281 282 282 282 280 280 280 280 279 279 280 279 276 275 274 272 271 270 270 270 269 268 267 267 265 262 263 263 265 269 270 270 272 274 277 277 279 282 284
Wind_Speed
3 6 6 8 4 4 8 4 4 2 1 3 5 8 11 8 6 10 10 10 9 10 10 5 6 7 8 9 12 15 14 16 12 11 10 9 9 8 7 8 10 12 11 12
6 4 6 8 7 7 5 4 4 1 2 2 4 12 10 8 9 8 8 8 9 7 8 7 7 6 7 9 13 13 16 14 14 11 12 9 9 9 9 8 10 12 12 11
6 1 9 7 4 7 3 7 4 3 1 3 4 9 7 5 4 6 6 6 6 10 11 6 5 6 5 7 9 11 13 13 14 15 8 6 1 2 7 8 9 11 14 14
4 2 7 7 4 5 6 7 5 4 4 4 2 6 7 5 11 6 7 5 6 8 6 4 3 4 5 5 5 7 7 10 11 12 11 15 13 13 11 9 8 8 14 14
5 8 7 4 6 7 4 7 6 4 4 2 3 2 9 4 7 5 3 5 7 7 7 5 5 5 4 6 4 3 5 6 8 11 13 11 13 9 7 8 9 11 10 13
3 1 4 5 5 2 10 8 8 6 3 2 5 5 7 5 5 2 0 4 6 7 7 6 6 6 6 6 6 5 0 3 4 6 10 11 12 9 3 3 7 6 6 8
2 1 1 4 8 5 3 6 3 2 3 6 3 2 10 6 6 4 5 7 6 5 5 6 7 7 7 8 7 6 6 5 0 4 5 5 6 5 7 6 6 5 4 3
7 3 8 5 7 10 7 7 7 9 5 3 3 8 8 3 2 6 4 1 4 6 6 7 6 6 6 6 6 7 7 7 6 4 1 1 3 2 3 4 4 5 6 5
6 4 1 1 3 6 6 5 5 9 3 4 5 7 12 0 5 3 2 4 6 5 5 6 6 6 6 6 7 6 7 7 7 6 4 4 2 2 0 2 3 3 3 2
8 4 2 1 2 3 4 8 4 3 3 4 5 5 7 5 7 4 3 6 5 6 7 7 6 7 6 7 6 8 7 8 6 7 6 5 5 4 2 0 3 3 3 3
6 5 1 3 6 9 3 3 5 5 5 7 2 8 7 6 8 9 6 5 5 6 5 5 6 6 6 7 8 8 8 9 9 6 5 6 6 5 5 3 3 3 3 4
3 6 5 6 2 0 1 6 6 6 5 2 4 9 2 2 7 7 5 5 4 5 5 5 6 6 7 8 8 9 7 8 7 5 6 7 6 6 6 5 5 4 5 4
7 3 4 5 1 2 5 5 4 5 4 8 7 9 3 5 6 3 4 5 5 5 6 5 5 7 7 7 7 8 8 8 7 7 7 6 5 5 5 4 4 5 5 5
4 3 7 10 5 3 6 6 6 6 4 6 11 6 1 4 6 4 3 5 6 6 5 5 6 5 5 6 7 8 7 7 7 7 7 7 8 6 6 5 5 5 4 5
3 4 3 4 4 3 2 3 7 13 18 10 16 14 8 14 12 8 6 7 7 6 6 5 5 5 5 6 5 4 5 6 5 6 8 8 6 6 6 7 7 5 5 4
1 4 3 1 4 3 5 8 7 5 2 5 3 13 5 6 7 4 6 7 7 7 6 5 4 3 4 4 4 4 4 5 4 6 7 7 8 9 9 9 10 9 8 6
6 7 4 4 6 3 8 17 15 5 6 6 13 11 7 6 10 10 9 8 8 7 6 5 4 2 2 4 3 5 5 4 5 6 5 5 6 6 6 6 6 8 9 9
8 9 3 3 6 4 4 1 6 14 5 14 7 3 8 5 4 4 4 8 8 7 6 5 3 1 2 3 3 4 4 5 5 5 4 5 6 6 7 6 6 6 3 5
5 4 4 8 6 7 4 7 9 11 11 19 15 10 5 5 4 3 4 4 6 5 4 3 1 0 3 5 5 5 5 5 5 5 5 5 5 6 6 6 6 5 3 5
3 2 4 3 6 10 7 1 6 5 6 5 16 14 10 7 5 4 7 6 6 6 3 1 2 2 4 5 4 5 5 5 6 5 6 5 4 4 5 6 6 4 3 6
7 7 14 5 4 9 6 4 3 7 9 3 4 6 7 5 1 4 7 5 5 3 2 1 2 3 4 5 4 5 5 5 4 5 5 5 5 5 4 5 3 4 6 6
12 6 5 4 10 13 8 4 11 6 2 4 5 6 9 8 7 7 7 6 4 1 2 3 3 4 4 4 3 4 4 4 4 5 6 6 6 5 4 4 4 4 4 5
3 7 7 9 8 1 2 1 0 4 5 4 7 7 9 9 6 7 5 4 3 4 3 2 3 4 4 4 4 5 5 5 4 5 5 6 7 7 5 5 6 4 4 4
4 2 4 5 4 2 2 1 1 4 5 7 6 7 6 8 7 6 4 3 3 2 4 2 4 5 5 3 5 3 5 6 6 6 6 5 6 7 5 3 3 3 4 4
5 7 6 2 1 3 1 3 5 7 7 7 5 5 7 8 4 4 3 3 4 4 3 3 3 3 4 4 5 5 6 6 6 6 7 7 6 6 8 4 5 4 4 5
6 7 6 6 10 6 7 10 8 9 8 8 7 6 4 5 6 4 4 3 2 2 2 2 2 3 3 4 5 4 4 5 5 7 6 6 6 6 6 6 6 9 9 9
Wind_Direction
15 95 182 179 152 134 128 127 137 265 270 188 229 268 274 285 256 260 260 260 258 250 266 236 248 231 221 210 207 206 194 199 187 197 195 200 203 196 193 191 191 194 198 195
44 201 193 117 124 115 109 117 185 173 16 161 357 285 262 261 255 237 234 253 260 277 282 278 252 251 224 227 219 214 209 198 195 198 204 202 202 207 202 194 188 191 194 197
148 212 140 125 144 126 112 150 201 165 77 68 344 297 313 299 271 276 265 255 267 260 276 294 309 283 257 234 225 219 214 206 200 201 195 193 137 133 194 196 194 195 195 194
162 124 134 116 173 122 160 197 153 137 93 224 39 281 299 310 298 274 312 340 333 328 293 274 333 12 355 301 261 230 207 205 205 196 193 204 210 213 212 206 201 192 194 201
210 153 143 138 195 159 189 127 132 99 99 76 330 87 271 337 282 307 29 32 1 345 0 40 45 27 13 3 351 257 226 215 208 200 203 202 212 220 216 208 188 193 192 198
117 103 156 156 64 68 154 81 53 59 99 320 222 151 277 212 217 234 215 350 352 354 352 10 23 21 19 10 19 23 68 235 223 210 212 211 217 216 176 182 201 192 191 196
78 120 354 123 86 35 70 97 42 358 358 224 5 140 244 243 238 222 288 323 353 6 37 37 29 22 19 19 14 17 29 41 350 202 206 211 208 191 198 191 207 188 179 182
145 223 176 187 168 168 193 157 157 189 193 247 52 233 251 223 233 271 247 235 59 38 37 42 30 31 29 25 28 33 35 34 27 41 84 159 180 190 196 193 202 221 211 208
142 228 40 118 150 142 194 191 160 107 19 54 218 283 300 169 52 92 110 80 69 65 56 53 40 39 24 29 29 42 53 47 39 40 45 47 38 32 283 233 198 223 251 258
195 113 10 161 107 32 157 156 85 9 131 249 275 268 230 192 188 153 100 79 58 60 52 42 32 37 31 39 34 39 49 61 44 41 37 33 30 28 16 329 259 256 261 239
142 105 258 135 211 163 139 170 62 119 145 168 225 256 222 209 168 165 162 90 60 75 66 52 42 35 35 43 40 40 37 48 47 44 40 40 25 13 13 4 336 301 282 259
192 125 153 191 176 161 70 184 151 143 211 236 153 257 310 229 152 149 139 75 65 81 70 55 42 35 35 36 36 38 17 28 39 41 54 54 33 18 15 357 342 326 285 271
186 189 82 1 13 5 200 188 142 107 84 202 140 260 11 118 127 172 129 94 93 91 74 56 45 40 36 37 38 33 28 10 15 30 42 43 30 22 8 354 346 337 317 301
88 114 175 202 159 136 178 181 170 147 174 190 224 251 170 175 169 180 160 111 99 83 68 58 45 37 33 34 36 30 19 8 5 18 38 34 17 2 352 348 352 346 335 313
105 130 99 108 105 107 153 204 180 198 223 187 252 229 184 194 198 196 168 145 125 103 80 68 57 37 24 26 27 30 19 18 357 24 32 17 356 355 357 0 353 344 348 332
115 129 100 115 161 212 261 245 235 242 262 279 180 253 207 174 122 172 179 161 149 139 137 131 110 80 54 30 19 7 10 8 1 27 25 6 5 0 360 355 352 350 344 338
153 138 130 246 158 129 287 220 206 186 189 164 224 248 164 177 198 196 184 173 160 155 146 128 106 65 18 11 360 359 345 349 20 21 10 5 356 348 346 338 338 345 340 338
154 151 109 131 131 204 243 82 206 212 211 210 256 231 180 181 111 108 144 151 155 152 143 134 119 27 352 344 355 335 356 2 8 11 357 356 354 346 342 342 341 331 313 318
166 137 143 151 204 306 254 184 162 172 248 217 221 209 200 113 91 62 125 126 148 144 135 133 148 324 338 348 349 348 349 352 7 9 353 342 336 331 330 328 322 309 309 315
191 136 125 154 160 203 238 241 152 135 291 214 195 200 160 143 157 209 160 136 128 129 128 97 359 4 350 342 342 339 342 353 4 353 332 319 305 286 299 301 308 288 296 291
193 187 201 175 211 285 243 160 136 112 239 189 145 142 135 153 191 133 126 119 137 151 163 70 1 334 330 335 344 345 350 1 342 327 323 316 305 299 283 297 281 298 311 309
187 168 191 166 206 252 170 93 162 202 89 149 122 134 121 129 123 126 133 128 118 51 11 18 345 358 355 10 29 353 340 332 322 328 320 314 308 309 298 278 288 293 310 315
223 184 179 176 206 278 207 301 122 146 142 152 120 125 128 129 132 133 124 108 78 41 36 26 31 353 16 32 39 336 320 332 329 316 298 301 304 302 294 296 298 313 312 306
267 191 154 76 287 265 169 50 130 134 126 124 122 124 121 124 129 119 113 85 73 58 44 11 25 15 347 3 2 317 328 342 325 305 300 297 289 298 271 278 274 285 288 293
187 138 162 267 288 80 300 203 154 118 121 118 99 113 128 127 122 119 110 85 65 31 19 8 358 335 327 2 333 345 343 339 322 307 303 302 296 301 306 286 283 275 261 246
189 170 169 216 184 171 198 186 169 152 163 158 136 128 99 125 141 129 138 107 99 5 337 359 349 335 310 325 308 307 331 338 322 308 298 296 299 295 288 295 302 294 278 295